| time (UTC) | temp F | wind direction | speed MPH | gust MPH | rain 1hr in | rain 24hr in | rain mn in | humidity % | barometer mb |
| 20260831061003 | 73 | 360 | 0.0 | 3.0 | 0.00 | 0.00 | 0.00 | 65 | 1014.5 |
| 20260831060503 | 72 | 8 | 0.0 | 1.0 | 0.00 | 0.00 | 0.00 | 70 | 1014.5 |
| 20260831060004 | 72 | 9 | 0.0 | 1.0 | 0.00 | 0.00 | 0.00 | 70 | 1014.4 |
| 20260831055504 | 72 | 11 | 0.0 | 1.0 | 0.00 | 0.00 | 0.00 | 70 | 1014.3 |
| 20260831055004 | 71 | 360 | 0.0 | 1.0 | 0.00 | 0.00 | 0.00 | 70 | 1014.3 |
| 20260831054504 | 71 | 11 | 1.0 | 2.0 | 0.00 | 0.00 | 0.00 | 71 | 1014.4 |
| 20260831054003 | 71 | 14 | 1.0 | 2.0 | 0.00 | 0.00 | 0.00 | 71 | 1014.3 |
| 20260831053504 | 70 | 21 | 1.0 | 3.0 | 0.00 | 0.00 | 0.00 | 71 | 1014.5 |
| 20260831053003 | 70 | 21 | 1.0 | 3.0 | 0.00 | 0.00 | 0.00 | 71 | 1014.2 |
| 20260831052504 | 69 | 17 | 1.0 | 2.0 | 0.00 | 0.00 | 0.00 | 72 | 1014.3 |
| 20260831052004 | 69 | 360 | 0.0 | 1.0 | 0.00 | 0.00 | 0.00 | 72 | 1014.0 |
| 20260831051504 | 69 | 9 | 1.0 | 4.0 | 0.00 | 0.00 | 0.00 | 72 | 1014.1 |
| 20260831051024 | 69 | 10 | 1.0 | 4.0 | 0.00 | 0.00 | 0.00 | 72 | 1014.0 |
| 20260831050503 | 69 | 2 | 1.0 | 4.0 | 0.00 | 0.00 | 0.00 | 72 | 1014.1 |
| 20260831050005 | 69 | 4 | 1.0 | 2.0 | 0.00 | 0.00 | 0.00 | 72 | 1014.2 |
| 20260831045504 | 69 | 9 | 1.0 | 2.0 | 0.00 | 0.00 | 0.00 | 72 | 1014.0 |
| 20260831045003 | 69 | 16 | 1.0 | 2.0 | 0.00 | 0.00 | 0.00 | 73 | 1014.2 |
| 20260831044503 | 69 | 14 | 0.0 | 2.0 | 0.00 | 0.00 | 0.00 | 73 | 1013.9 |
| 20260831044004 | 69 | 7 | 0.0 | 2.0 | 0.00 | 0.00 | 0.00 | 73 | 1014.0 |
| 20260831043525 | 69 | 11 | 0.0 | 2.0 | 0.00 | 0.00 | 0.00 | 73 | 1014.1 |
| 20260831043024 | 69 | 0 | 0.0 | 0.0 | 0.00 | 0.00 | 0.00 | 72 | 1014.1 |
| 20260831042503 | 69 | 10 | 1.0 | 2.0 | 0.00 | 0.00 | 0.00 | 71 | 1013.9 |
| 20260831042024 | 69 | 9 | 1.0 | 2.0 | 0.00 | 0.00 | 0.00 | 70 | 1014.1 |
| 20260831041546 | 69 | 347 | 1.0 | 2.0 | 0.00 | 0.00 | 0.00 | 70 | 1014.2 |
| 20260831041003 | 70 | 333 | 1.0 | 2.0 | 0.00 | 0.00 | 0.00 | 69 | 1014.4 |
| 20260831040503 | 71 | 0 | 0.0 | 0.0 | 0.00 | 0.00 | 0.00 | 68 | 1014.2 |
| 20260831040003 | 71 | 0 | 0.0 | 0.0 | 0.00 | 0.00 | 0.00 | 68 | 1014.1 |
| 20260831035504 | 71 | 0 | 0.0 | 0.0 | 0.00 | 0.00 | 0.00 | 68 | 1014.1 |
| 20260831035004 | 71 | 0 | 0.0 | 0.0 | 0.00 | 0.00 | 0.00 | 68 | 1013.9 |
| 20260831034503 | 71 | 0 | 0.0 | 0.0 | 0.00 | 0.00 | 0.00 | 68 | 1014.0 |
| 20260831034003 | 71 | 0 | 0.0 | 0.0 | 0.00 | 0.00 | 0.00 | 68 | 1014.1 |
| 20260831033503 | 71 | 0 | 0.0 | 0.0 | 0.00 | 0.00 | 0.00 | 68 | 1014.0 |
| 20260831033024 | 71 | 9 | 0.0 | 2.0 | 0.00 | 0.00 | 0.00 | 68 | 1014.1 |
| 20260831032503 | 71 | 9 | 0.0 | 2.0 | 0.00 | 0.00 | 0.00 | 68 | 1014.3 |
| 20260831032003 | 71 | 22 | 0.0 | 1.0 | 0.00 | 0.00 | 0.00 | 68 | 1014.1 |
| 20260831031503 | 71 | 11 | 0.0 | 1.0 | 0.00 | 0.00 | 0.00 | 68 | 1014.3 |
| 20260831031025 | 71 | 9 | 0.0 | 1.0 | 0.00 | 0.00 | 0.00 | 68 | 1014.3 |
| 20260831030503 | 71 | 9 | 0.0 | 2.0 | 0.00 | 0.00 | 0.00 | 69 | 1014.4 |
| 20260831030003 | 71 | 11 | 1.0 | 2.0 | 0.00 | 0.00 | 0.00 | 69 | 1014.3 |
| 20260831025503 | 71 | 20 | 0.0 | 2.0 | 0.00 | 0.00 | 0.00 | 69 | 1014.2 |
| 20260831025003 | 71 | 16 | 1.0 | 2.0 | 0.00 | 0.00 | 0.00 | 69 | 1014.4 |
| 20260831024503 | 71 | 8 | 1.0 | 3.0 | 0.00 | 0.00 | 0.00 | 70 | 1014.3 |
| 20260831024024 | 71 | 5 | 2.0 | 5.0 | 0.00 | 0.00 | 0.00 | 70 | 1014.4 |
| 20260831023503 | 71 | 10 | 2.0 | 5.0 | 0.00 | 0.00 | 0.00 | 70 | 1014.4 |
| 20260831023003 | 71 | 14 | 2.0 | 4.0 | 0.00 | 0.00 | 0.00 | 69 | 1014.4 |
| 20260831022524 | 71 | 16 | 1.0 | 2.0 | 0.00 | 0.00 | 0.00 | 69 | 1014.4 |
| 20260831022003 | 71 | 18 | 0.0 | 2.0 | 0.00 | 0.00 | 0.00 | 68 | 1014.3 |
| 20260831021525 | 71 | 19 | 0.0 | 2.0 | 0.00 | 0.00 | 0.00 | 68 | 1014.4 |
| 20260831021003 | 71 | 22 | 0.0 | 1.0 | 0.00 | 0.00 | 0.00 | 69 | 1014.3 |
| 20260831020524 | 71 | 9 | 0.0 | 1.0 | 0.00 | 0.00 | 0.00 | 69 | 1014.4 |
| 20260831020003 | 71 | 10 | 1.0 | 2.0 | 0.00 | 0.00 | 0.00 | 69 | 1014.4 |
| 20260831015503 | 71 | 19 | 1.0 | 2.0 | 0.00 | 0.00 | 0.00 | 69 | 1014.3 |
| 20260831015004 | 71 | 19 | 1.0 | 2.0 | 0.00 | 0.00 | 0.00 | 70 | 1014.3 |
| 20260831014503 | 71 | 5 | 1.0 | 3.0 | 0.00 | 0.00 | 0.00 | 70 | 1014.3 |
| 20260831014004 | 71 | 4 | 1.0 | 3.0 | 0.00 | 0.00 | 0.00 | 70 | 1014.4 |
| 20260831013504 | 71 | 12 | 1.0 | 3.0 | 0.00 | 0.00 | 0.00 | 70 | 1014.4 |
| 20260831013004 | 71 | 14 | 1.0 | 2.0 | 0.00 | 0.00 | 0.00 | 70 | 1014.6 |
| 20260831012503 | 71 | 11 | 1.0 | 2.0 | 0.00 | 0.00 | 0.00 | 70 | 1014.5 |
| 20260831012003 | 71 | 11 | 0.0 | 1.0 | 0.00 | 0.00 | 0.00 | 70 | 1014.5 |
| 20260831011503 | 71 | 14 | 0.0 | 1.0 | 0.00 | 0.00 | 0.00 | 70 | 1014.5 |
| 20260831011004 | 71 | 11 | 0.0 | 1.0 | 0.00 | 0.00 | 0.00 | 70 | 1014.5 |
| 20260831010504 | 71 | 8 | 0.0 | 1.0 | 0.00 | 0.00 | 0.00 | 70 | 1014.5 |
| 20260831010003 | 71 | 360 | 0.0 | 1.0 | 0.00 | 0.00 | 0.00 | 70 | 1014.4 |
| 20260831005503 | 71 | 8 | 0.0 | 1.0 | 0.00 | 0.00 | 0.00 | 70 | 1014.5 |
| 20260831005003 | 72 | 8 | 1.0 | 1.0 | 0.00 | 0.00 | 0.00 | 70 | 1014.4 |
| 20260831004524 | 72 | 4 | 0.0 | 1.0 | 0.00 | 0.00 | 0.00 | 69 | 1014.4 |
| 20260831004003 | 72 | 0 | 0.0 | 0.0 | 0.00 | 0.00 | 0.00 | 68 | 1014.3 |
| 20260831003504 | 72 | 0 | 0.0 | 0.0 | 0.00 | 0.00 | 0.00 | 68 | 1014.3 |
| 20260831003003 | 72 | 0 | 0.0 | 0.0 | 0.00 | 0.00 | 0.00 | 67 | 1014.3 |
| 20260831002503 | 72 | 22 | 0.0 | 1.0 | 0.00 | 0.00 | 0.00 | 67 | 1014.4 |
| 20260831002004 | 72 | 22 | 0.0 | 1.0 | 0.00 | 0.00 | 0.00 | 64 | 1014.4 |
| 20260831001503 | 72 | 22 | 0.0 | 1.0 | 0.00 | 0.00 | 0.00 | 64 | 1014.5 |
| 20260831001003 | 72 | 0 | 0.0 | 0.0 | 0.00 | 0.00 | 0.00 | 64 | 1014.6 |
| 20260831000503 | 72 | 360 | 0.0 | 1.0 | 0.00 | 0.00 | 0.00 | 63 | 1014.5 |
| 20260831000003 | 72 | 360 | 0.0 | 1.0 | 0.00 | 0.00 | 0.00 | 63 | 1014.8 |
| 20260830235524 | 72 | 360 | 0.0 | 1.0 | 0.00 | 0.00 | 0.00 | 64 | 1014.5 |
| 20260830235003 | 72 | 9 | 0.0 | 1.0 | 0.00 | 0.00 | 0.00 | 67 | 1014.7 |
| 20260830234503 | 72 | 6 | 0.0 | 1.0 | 0.00 | 0.00 | 0.00 | 68 | 1014.8 |
| 20260830234024 | 72 | 360 | 0.0 | 1.0 | 0.00 | 0.00 | 0.00 | 67 | 1014.8 |
| 20260830233503 | 72 | 0 | 0.0 | 0.0 | 0.00 | 0.00 | 0.00 | 63 | 1014.7 |
| 20260830233003 | 73 | 0 | 0.0 | 0.0 | 0.00 | 0.00 | 0.00 | 63 | 1014.8 |
| 20260830232503 | 73 | 0 | 0.0 | 0.0 | 0.00 | 0.00 | 0.00 | 63 | 1014.7 |
| 20260830232003 | 72 | 11 | 0.0 | 1.0 | 0.00 | 0.00 | 0.00 | 63 | 1014.8 |
| 20260830231503 | 73 | 9 | 0.0 | 1.0 | 0.00 | 0.00 | 0.00 | 63 | 1014.7 |
| 20260830231003 | 73 | 11 | 0.0 | 1.0 | 0.00 | 0.00 | 0.00 | 63 | 1014.6 |
| 20260830230503 | 73 | 11 | 0.0 | 1.0 | 0.00 | 0.00 | 0.00 | 63 | 1014.7 |
| 20260830230024 | 73 | 360 | 0.0 | 1.0 | 0.00 | 0.00 | 0.00 | 63 | 1014.7 |
| 20260830225503 | 73 | 11 | 0.0 | 1.0 | 0.00 | 0.00 | 0.00 | 63 | 1014.9 |
| 20260830225024 | 73 | 5 | 0.0 | 1.0 | 0.00 | 0.00 | 0.00 | 62 | 1014.8 |
| 20260830224503 | 73 | 360 | 0.0 | 1.0 | 0.00 | 0.00 | 0.00 | 62 | 1014.9 |
| 20260830224003 | 73 | 360 | 0.0 | 1.0 | 0.00 | 0.00 | 0.00 | 62 | 1015.0 |
| 20260830223524 | 73 | 4 | 0.0 | 1.0 | 0.00 | 0.00 | 0.00 | 62 | 1015.0 |
| 20260830223003 | 73 | 7 | 0.0 | 1.0 | 0.00 | 0.00 | 0.00 | 62 | 1014.9 |
| 20260830222524 | 73 | 11 | 0.0 | 1.0 | 0.00 | 0.00 | 0.00 | 62 | 1014.9 |
| 20260830222003 | 73 | 17 | 0.0 | 1.0 | 0.00 | 0.00 | 0.00 | 62 | 1014.8 |
| 20260830221503 | 73 | 22 | 0.0 | 1.0 | 0.00 | 0.00 | 0.00 | 62 | 1014.8 |
| 20260830221024 | 73 | 22 | 0.0 | 1.0 | 0.00 | 0.00 | 0.00 | 62 | 1014.9 |
| 20260830220524 | 73 | 0 | 0.0 | 0.0 | 0.00 | 0.00 | 0.00 | 61 | 1014.8 |
| 20260830220004 | 73 | 0 | 0.0 | 0.0 | 0.00 | 0.00 | 0.00 | 61 | 1014.9 |
| 20260830215503 | 73 | 0 | 0.0 | 0.0 | 0.00 | 0.00 | 0.00 | 61 | 1014.8 |
| 20260830215003 | 73 | 0 | 0.0 | 0.0 | 0.00 | 0.00 | 0.00 | 60 | 1014.6 |
| 20260830214503 | 74 | 0 | 0.0 | 0.0 | 0.00 | 0.00 | 0.00 | 60 | 1014.6 |
| 20260830214024 | 74 | 0 | 0.0 | 0.0 | 0.00 | 0.00 | 0.00 | 60 | 1014.7 |
| 20260830213503 | 74 | 0 | 0.0 | 0.0 | 0.00 | 0.00 | 0.00 | 60 | 1014.6 |
| 20260830213003 | 74 | 0 | 0.0 | 0.0 | 0.00 | 0.00 | 0.00 | 59 | 1014.6 |
| 20260830212003 | 74 | 56 | 0.0 | 1.0 | 0.00 | 0.00 | 0.00 | 59 | 1014.5 |
| 20260830211503 | 74 | 72 | 0.0 | 1.0 | 0.00 | 0.00 | 0.00 | 58 | 1014.5 |
| 20260830211003 | 74 | 135 | 0.0 | 1.0 | 0.00 | 0.00 | 0.00 | 57 | 1014.6 |
| 20260830210524 | 75 | 0 | 0.0 | 0.0 | 0.00 | 0.00 | 0.00 | 57 | 1014.5 |
| 20260830210024 | 75 | 0 | 0.0 | 0.0 | 0.00 | 0.00 | 0.00 | 57 | 1014.5 |
| 20260830205524 | 75 | 0 | 0.0 | 0.0 | 0.00 | 0.00 | 0.00 | 56 | 1014.4 |
| 20260830205003 | 75 | 0 | 0.0 | 0.0 | 0.00 | 0.00 | 0.00 | 57 | 1014.4 |
| 20260830204503 | 75 | 0 | 0.0 | 0.0 | 0.00 | 0.00 | 0.00 | 57 | 1014.5 |
| 20260830204003 | 75 | 0 | 0.0 | 0.0 | 0.00 | 0.00 | 0.00 | 57 | 1014.4 |
| 20260830203503 | 75 | 0 | 0.0 | 0.0 | 0.00 | 0.00 | 0.00 | 57 | 1014.5 |
| 20260830203003 | 75 | 0 | 0.0 | 0.0 | 0.00 | 0.00 | 0.00 | 57 | 1014.4 |
| 20260830202503 | 75 | 0 | 0.0 | 0.0 | 0.00 | 0.00 | 0.00 | 57 | 1014.4 |
| 20260830202003 | 75 | 0 | 0.0 | 0.0 | 0.00 | 0.00 | 0.00 | 56 | 1014.4 |
| 20260830201503 | 76 | 0 | 0.0 | 0.0 | 0.00 | 0.00 | 0.00 | 56 | 1014.6 |
| 20260830201003 | 76 | 0 | 0.0 | 0.0 | 0.00 | 0.00 | 0.00 | 56 | 1014.4 |
| 20260830200503 | 76 | 0 | 0.0 | 0.0 | 0.00 | 0.00 | 0.00 | 55 | 1014.4 |
| 20260830200003 | 76 | 0 | 0.0 | 0.0 | 0.00 | 0.00 | 0.00 | 55 | 1014.5 |
| 20260830195503 | 76 | 0 | 0.0 | 0.0 | 0.00 | 0.00 | 0.00 | 54 | 1014.3 |
| 20260830195003 | 76 | 0 | 0.0 | 0.0 | 0.00 | 0.00 | 0.00 | 53 | 1014.3 |
| 20260830194503 | 76 | 0 | 0.0 | 0.0 | 0.00 | 0.00 | 0.00 | 53 | 1014.3 |
| 20260830194003 | 77 | 0 | 0.0 | 0.0 | 0.00 | 0.00 | 0.00 | 53 | 1014.4 |
| 20260830193503 | 77 | 0 | 0.0 | 0.0 | 0.00 | 0.00 | 0.00 | 53 | 1014.3 |
| 20260830193003 | 77 | 0 | 0.0 | 0.0 | 0.00 | 0.00 | 0.00 | 53 | 1014.4 |
| 20260830192503 | 77 | 360 | 0.0 | 1.0 | 0.00 | 0.00 | 0.00 | 53 | 1014.4 |
| 20260830192003 | 77 | 360 | 0.0 | 1.0 | 0.00 | 0.00 | 0.00 | 53 | 1014.3 |
| 20260830191503 | 77 | 0 | 0.0 | 0.0 | 0.00 | 0.00 | 0.00 | 53 | 1014.4 |
| 20260830191003 | 77 | 0 | 0.0 | 0.0 | 0.00 | 0.00 | 0.00 | 52 | 1014.4 |
| 20260830190503 | 77 | 0 | 0.0 | 0.0 | 0.00 | 0.00 | 0.00 | 52 | 1014.3 |
| 20260830190003 | 77 | 0 | 0.0 | 0.0 | 0.00 | 0.00 | 0.00 | 52 | 1014.2 |
| 20260830185503 | 77 | 0 | 0.0 | 0.0 | 0.00 | 0.00 | 0.00 | 52 | 1014.2 |
| 20260830185003 | 77 | 0 | 0.0 | 0.0 | 0.00 | 0.00 | 0.00 | 52 | 1014.0 |
| 20260830184524 | 77 | 0 | 0.0 | 0.0 | 0.00 | 0.00 | 0.00 | 52 | 1013.9 |
| 20260830184003 | 77 | 0 | 0.0 | 0.0 | 0.00 | 0.00 | 0.00 | 52 | 1014.0 |
| 20260830183503 | 78 | 0 | 0.0 | 0.0 | 0.00 | 0.00 | 0.00 | 52 | 1014.0 |
| 20260830183024 | 78 | 0 | 0.0 | 0.0 | 0.00 | 0.00 | 0.00 | 52 | 1014.0 |
| 20260830182503 | 78 | 0 | 0.0 | 0.0 | 0.00 | 0.00 | 0.00 | 51 | 1013.7 |
| 20260830182003 | 78 | 0 | 0.0 | 0.0 | 0.00 | 0.00 | 0.00 | 51 | 1014.0 |
| 20260830181503 | 78 | 0 | 0.0 | 0.0 | 0.00 | 0.00 | 0.00 | 51 | 1013.8 |
| 20260830181024 | 79 | 0 | 0.0 | 0.0 | 0.00 | 0.00 | 0.00 | 51 | 1013.9 |
| 20260830180503 | 79 | 0 | 0.0 | 0.0 | 0.00 | 0.00 | 0.00 | 51 | 1013.8 |
| 20260830180003 | 79 | 0 | 0.0 | 0.0 | 0.00 | 0.00 | 0.00 | 51 | 1013.8 |
| 20260830175503 | 80 | 0 | 0.0 | 0.0 | 0.00 | 0.00 | 0.00 | 50 | 1013.7 |
| 20260830175003 | 80 | 0 | 0.0 | 0.0 | 0.00 | 0.00 | 0.00 | 50 | 1013.7 |
| 20260830174503 | 81 | 0 | 0.0 | 0.0 | 0.00 | 0.00 | 0.00 | 50 | 1013.7 |
| 20260830174003 | 81 | 0 | 0.0 | 0.0 | 0.00 | 0.00 | 0.00 | 49 | 1013.6 |
| 20260830173503 | 82 | 0 | 0.0 | 0.0 | 0.00 | 0.00 | 0.00 | 43 | 1013.6 |
| 20260830173003 | 83 | 0 | 0.0 | 0.0 | 0.00 | 0.00 | 0.00 | 42 | 1013.6 |
| 20260830172524 | 84 | 0 | 0.0 | 0.0 | 0.00 | 0.00 | 0.00 | 42 | 1013.5 |
| 20260830172024 | 84 | 0 | 0.0 | 0.0 | 0.00 | 0.00 | 0.00 | 41 | 1013.6 |
| 20260830171503 | 85 | 0 | 0.0 | 0.0 | 0.00 | 0.00 | 0.00 | 41 | 1013.6 |
| 20260830171003 | 85 | 0 | 0.0 | 0.0 | 0.00 | 0.00 | 0.00 | 41 | 1013.6 |
| 20260830170503 | 85 | 0 | 0.0 | 0.0 | 0.00 | 0.00 | 0.00 | 41 | 1013.6 |
| 20260830170003 | 85 | 0 | 0.0 | 0.0 | 0.00 | 0.00 | 0.00 | 41 | 1013.5 |
| 20260830165524 | 85 | 0 | 0.0 | 0.0 | 0.00 | 0.00 | 0.00 | 41 | 1013.7 |
| 20260830165003 | 85 | 0 | 0.0 | 0.0 | 0.00 | 0.00 | 0.00 | 40 | 1013.6 |
| 20260830164503 | 86 | 0 | 0.0 | 0.0 | 0.00 | 0.00 | 0.00 | 40 | 1013.5 |
| 20260830164003 | 86 | 0 | 0.0 | 0.0 | 0.00 | 0.00 | 0.00 | 40 | 1013.7 |
| 20260830163503 | 85 | 315 | 0.0 | 1.0 | 0.00 | 0.00 | 0.00 | 40 | 1013.7 |
| 20260830163003 | 86 | 315 | 0.0 | 1.0 | 0.00 | 0.00 | 0.00 | 40 | 1013.7 |
| 20260830162503 | 86 | 0 | 0.0 | 0.0 | 0.00 | 0.00 | 0.00 | 40 | 1013.7 |
| 20260830162003 | 86 | 270 | 0.0 | 1.0 | 0.00 | 0.00 | 0.00 | 40 | 1013.6 |
| 20260830161503 | 86 | 270 | 0.0 | 1.0 | 0.00 | 0.00 | 0.00 | 40 | 1013.7 |
| 20260830161004 | 86 | 270 | 0.0 | 1.0 | 0.00 | 0.00 | 0.00 | 40 | 1013.7 |
| 20260830160503 | 86 | 202 | 0.0 | 4.0 | 0.00 | 0.00 | 0.00 | 40 | 1013.5 |
| 20260830160003 | 86 | 214 | 1.0 | 5.0 | 0.00 | 0.00 | 0.00 | 40 | 1013.6 |
| 20260830155524 | 86 | 217 | 1.0 | 5.0 | 0.00 | 0.00 | 0.00 | 40 | 1013.6 |
| 20260830155003 | 86 | 247 | 0.0 | 1.0 | 0.00 | 0.00 | 0.00 | 40 | 1013.7 |
| 20260830154503 | 86 | 223 | 1.0 | 4.0 | 0.00 | 0.00 | 0.00 | 40 | 1013.7 |
| 20260830154003 | 86 | 265 | 2.0 | 4.0 | 0.00 | 0.00 | 0.00 | 40 | 1013.8 |
| 20260830153503 | 86 | 303 | 1.0 | 4.0 | 0.00 | 0.00 | 0.00 | 40 | 1013.7 |
| 20260830153003 | 86 | 276 | 0.0 | 3.0 | 0.00 | 0.00 | 0.00 | 40 | 1013.9 |
| 20260830152503 | 86 | 294 | 0.0 | 1.0 | 0.00 | 0.00 | 0.00 | 40 | 1013.8 |
| 20260830152003 | 86 | 315 | 0.0 | 1.0 | 0.00 | 0.00 | 0.00 | 40 | 1013.7 |
| 20260830151503 | 86 | 282 | 1.0 | 3.0 | 0.00 | 0.00 | 0.00 | 40 | 1014.0 |
| 20260830151003 | 86 | 294 | 1.0 | 3.0 | 0.00 | 0.00 | 0.00 | 40 | 1013.9 |
| 20260830150524 | 87 | 315 | 1.0 | 4.0 | 0.00 | 0.00 | 0.00 | 40 | 1014.0 |
| 20260830150003 | 87 | 315 | 1.0 | 5.0 | 0.00 | 0.00 | 0.00 | 40 | 1014.1 |
| 20260830145503 | 87 | 309 | 0.0 | 5.0 | 0.00 | 0.00 | 0.00 | 40 | 1014.0 |
| 20260830145003 | 86 | 219 | 0.0 | 1.0 | 0.00 | 0.00 | 0.00 | 40 | 1013.8 |
| 20260830144503 | 86 | 245 | 1.0 | 4.0 | 0.00 | 0.00 | 0.00 | 40 | 1014.0 |
| 20260830144003 | 86 | 276 | 2.0 | 4.0 | 0.00 | 0.00 | 0.00 | 40 | 1014.0 |
| 20260830143503 | 86 | 279 | 1.0 | 4.0 | 0.00 | 0.00 | 0.00 | 40 | 1013.9 |
| 20260830143024 | 86 | 257 | 2.0 | 8.0 | 0.00 | 0.00 | 0.00 | 40 | 1014.0 |
| 20260830142503 | 86 | 272 | 2.0 | 8.0 | 0.00 | 0.00 | 0.00 | 40 | 1014.0 |
| 20260830142003 | 86 | 321 | 1.0 | 4.0 | 0.00 | 0.00 | 0.00 | 40 | 1014.1 |
| 20260830141524 | 86 | 321 | 2.0 | 4.0 | 0.00 | 0.00 | 0.00 | 40 | 1014.1 |
| 20260830141003 | 85 | 322 | 1.0 | 4.0 | 0.00 | 0.00 | 0.00 | 40 | 1014.1 |
| 20260830140503 | 85 | 315 | 0.0 | 1.0 | 0.00 | 0.00 | 0.00 | 40 | 1014.2 |
| 20260830140003 | 85 | 186 | 0.0 | 4.0 | 0.00 | 0.00 | 0.00 | 40 | 1014.3 |
| 20260830135503 | 85 | 185 | 1.0 | 4.0 | 0.00 | 0.00 | 0.00 | 40 | 1014.3 |
| 20260830135003 | 85 | 231 | 0.0 | 4.0 | 0.00 | 0.00 | 0.00 | 41 | 1014.3 |
| 20260830134503 | 85 | 286 | 1.0 | 4.0 | 0.00 | 0.00 | 0.00 | 41 | 1014.2 |
| 20260830134003 | 85 | 270 | 1.0 | 5.0 | 0.00 | 0.00 | 0.00 | 41 | 1014.5 |
| 20260830133503 | 85 | 238 | 2.0 | 5.0 | 0.00 | 0.00 | 0.00 | 41 | 1014.4 |
| 20260830133003 | 85 | 207 | 2.0 | 5.0 | 0.00 | 0.00 | 0.00 | 41 | 1014.5 |
| 20260830132503 | 85 | 207 | 1.0 | 5.0 | 0.00 | 0.00 | 0.00 | 42 | 1014.5 |
| 20260830132024 | 85 | 246 | 1.0 | 4.0 | 0.00 | 0.00 | 0.00 | 42 | 1014.5 |
| 20260830131503 | 84 | 294 | 2.0 | 5.0 | 0.00 | 0.00 | 0.00 | 42 | 1014.4 |
| 20260830131003 | 84 | 315 | 3.0 | 5.0 | 0.00 | 0.00 | 0.00 | 42 | 1014.6 |
| 20260830130503 | 84 | 302 | 3.0 | 7.0 | 0.00 | 0.00 | 0.00 | 43 | 1014.8 |
| 20260830130003 | 84 | 283 | 2.0 | 7.0 | 0.00 | 0.00 | 0.00 | 43 | 1014.6 |
| 20260830125524 | 85 | 265 | 1.0 | 7.0 | 0.00 | 0.00 | 0.00 | 43 | 1014.9 |
| 20260830125024 | 84 | 255 | 1.0 | 4.0 | 0.00 | 0.00 | 0.00 | 43 | 1014.9 |
| 20260830124503 | 84 | 272 | 2.0 | 4.0 | 0.00 | 0.00 | 0.00 | 43 | 1014.9 |
| 20260830124003 | 84 | 304 | 1.0 | 3.0 | 0.00 | 0.00 | 0.00 | 44 | 1014.9 |
| 20260830123503 | 84 | 284 | 1.0 | 4.0 | 0.00 | 0.00 | 0.00 | 43 | 1014.8 |
| 20260830123003 | 84 | 241 | 1.0 | 4.0 | 0.00 | 0.00 | 0.00 | 44 | 1014.9 |
| 20260830122503 | 84 | 218 | 1.0 | 4.0 | 0.00 | 0.00 | 0.00 | 45 | 1014.9 |
| 20260830122003 | 84 | 265 | 1.0 | 4.0 | 0.00 | 0.00 | 0.00 | 45 | 1014.9 |
| 20260830121503 | 83 | 301 | 2.0 | 5.0 | 0.00 | 0.00 | 0.00 | 47 | 1015.0 |
| 20260830121003 | 83 | 297 | 1.0 | 5.0 | 0.00 | 0.00 | 0.00 | 46 | 1014.8 |
| 20260830120503 | 83 | 315 | 0.0 | 1.0 | 0.00 | 0.00 | 0.00 | 47 | 1014.9 |
| 20260830120003 | 83 | 315 | 0.0 | 2.0 | 0.00 | 0.00 | 0.00 | 47 | 1014.9 |
| 20260830115503 | 83 | 282 | 1.0 | 7.0 | 0.00 | 0.00 | 0.00 | 47 | 1014.9 |
| 20260830115003 | 83 | 269 | 2.0 | 7.0 | 0.00 | 0.00 | 0.00 | 47 | 1014.9 |
| 20260830114505 | 83 | 242 | 2.0 | 4.0 | 0.00 | 0.00 | 0.00 | 48 | 1014.9 |
| 20260830114005 | 83 | 245 | 2.0 | 4.0 | 0.00 | 0.00 | 0.00 | 48 | 1014.9 |
| 20260830113505 | 83 | 269 | 1.0 | 4.0 | 0.00 | 0.00 | 0.00 | 49 | 1015.0 |
| 20260830113004 | 83 | 268 | 1.0 | 4.0 | 0.00 | 0.00 | 0.00 | 49 | 1015.1 |
| 20260830112504 | 82 | 206 | 1.0 | 2.0 | 0.00 | 0.00 | 0.00 | 49 | 1014.9 |
| 20260830112025 | 82 | 219 | 1.0 | 1.0 | 0.00 | 0.00 | 0.00 | 49 | 1015.3 |
| 20260830111504 | 82 | 258 | 1.0 | 1.0 | 0.00 | 0.00 | 0.00 | 49 | 1015.2 |
| 20260830111004 | 82 | 295 | 1.0 | 4.0 | 0.00 | 0.00 | 0.00 | 49 | 1015.3 |
| 20260830110504 | 82 | 301 | 1.0 | 4.0 | 0.00 | 0.00 | 0.00 | 48 | 1015.3 |
| 20260830110005 | 82 | 236 | 0.0 | 2.0 | 0.00 | 0.00 | 0.00 | 50 | 1015.5 |
| 20260830105505 | 82 | 243 | 0.0 | 2.0 | 0.00 | 0.00 | 0.00 | 50 | 1015.2 |
| 20260830105004 | 82 | 247 | 0.0 | 2.0 | 0.00 | 0.00 | 0.00 | 50 | 1015.3 |
| 20260830104505 | 81 | 242 | 1.0 | 3.0 | 0.00 | 0.00 | 0.00 | 53 | 1015.3 |
| 20260830104004 | 81 | 240 | 2.0 | 3.0 | 0.00 | 0.00 | 0.00 | 53 | 1015.5 |
| 20260830103526 | 81 | 262 | 2.0 | 3.0 | 0.00 | 0.00 | 0.00 | 53 | 1015.8 |
| 20260830103005 | 81 | 296 | 1.0 | 3.0 | 0.00 | 0.00 | 0.00 | 53 | 1015.6 |
| 20260830102505 | 80 | 295 | 1.0 | 4.0 | 0.00 | 0.00 | 0.00 | 53 | 1015.8 |
| 20260830102004 | 80 | 284 | 1.0 | 4.0 | 0.00 | 0.00 | 0.00 | 53 | 1015.7 |
| 20260830101505 | 80 | 232 | 1.0 | 4.0 | 0.00 | 0.00 | 0.00 | 54 | 1015.6 |
| 20260830101025 | 80 | 192 | 0.0 | 2.0 | 0.00 | 0.00 | 0.00 | 53 | 1015.9 |
| 20260830100504 | 80 | 135 | 0.0 | 1.0 | 0.00 | 0.00 | 0.00 | 55 | 1015.8 |
| 20260830100005 | 80 | 188 | 0.0 | 1.0 | 0.00 | 0.00 | 0.00 | 55 | 1015.9 |
| 20260830095505 | 80 | 239 | 0.0 | 1.0 | 0.00 | 0.00 | 0.00 | 54 | 1015.9 |
| 20260830095005 | 80 | 289 | 1.0 | 4.0 | 0.00 | 0.00 | 0.00 | 56 | 1015.8 |
| 20260830094526 | 79 | 238 | 2.0 | 4.0 | 0.00 | 0.00 | 0.00 | 56 | 1015.9 |
| 20260830094004 | 79 | 235 | 2.0 | 4.0 | 0.00 | 0.00 | 0.00 | 56 | 1015.9 |
| 20260830093505 | 79 | 220 | 1.0 | 3.0 | 0.00 | 0.00 | 0.00 | 57 | 1015.9 |
| 20260830093026 | 79 | 189 | 1.0 | 3.0 | 0.00 | 0.00 | 0.00 | 57 | 1015.9 |
| 20260830092526 | 79 | 135 | 0.0 | 1.0 | 0.00 | 0.00 | 0.00 | 57 | 1016.0 |
| 20260830092004 | 79 | 0 | 0.0 | 0.0 | 0.00 | 0.00 | 0.00 | 57 | 1016.2 |
| 20260830091504 | 78 | 135 | 0.0 | 1.0 | 0.00 | 0.00 | 0.00 | 57 | 1016.0 |
| 20260830091005 | 78 | 135 | 0.0 | 1.0 | 0.00 | 0.00 | 0.00 | 57 | 1016.0 |
| 20260830090505 | 78 | 202 | 0.0 | 1.0 | 0.00 | 0.00 | 0.00 | 58 | 1016.2 |
| 20260830090005 | 78 | 126 | 1.0 | 3.0 | 0.00 | 0.00 | 0.00 | 58 | 1015.9 |
| 20260830085504 | 78 | 126 | 1.0 | 3.0 | 0.00 | 0.00 | 0.00 | 57 | 1016.3 |
| 20260830085005 | 78 | 125 | 1.0 | 3.0 | 0.00 | 0.00 | 0.00 | 58 | 1016.0 |
| 20260830084505 | 78 | 105 | 0.0 | 1.0 | 0.00 | 0.00 | 0.00 | 59 | 1016.2 |
| 20260830084005 | 78 | 114 | 0.0 | 1.0 | 0.00 | 0.00 | 0.00 | 59 | 1015.9 |
| 20260830083505 | 77 | 142 | 0.0 | 1.0 | 0.00 | 0.00 | 0.00 | 60 | 1016.0 |
| 20260830083004 | 77 | 209 | 1.0 | 4.0 | 0.00 | 0.00 | 0.00 | 60 | 1016.0 |
| 20260830082504 | 76 | 208 | 1.0 | 4.0 | 0.00 | 0.00 | 0.00 | 60 | 1016.2 |
| 20260830082005 | 76 | 144 | 1.0 | 2.0 | 0.00 | 0.00 | 0.00 | 60 | 1016.0 |
| 20260830081504 | 76 | 121 | 1.0 | 2.0 | 0.00 | 0.00 | 0.00 | 60 | 1015.9 |
| 20260830081004 | 76 | 127 | 1.0 | 2.0 | 0.00 | 0.00 | 0.00 | 60 | 1015.8 |
| 20260830080505 | 76 | 132 | 2.0 | 3.0 | 0.00 | 0.00 | 0.00 | 59 | 1015.8 |
| 20260830080005 | 76 | 127 | 1.0 | 3.0 | 0.00 | 0.00 | 0.00 | 59 | 1015.9 |
| 20260830075505 | 76 | 101 | 0.0 | 1.0 | 0.00 | 0.00 | 0.00 | 60 | 1015.8 |
| 20260830075004 | 76 | 93 | 0.0 | 2.0 | 0.00 | 0.00 | 0.00 | 60 | 1015.9 |
| 20260830074504 | 75 | 84 | 0.0 | 2.0 | 0.00 | 0.00 | 0.00 | 60 | 1015.8 |
| 20260830074005 | 75 | 22 | 0.0 | 1.0 | 0.00 | 0.00 | 0.00 | 60 | 1015.8 |
| 20260830073505 | 75 | 22 | 0.0 | 1.0 | 0.00 | 0.00 | 0.00 | 60 | 1015.7 |
| 20260830073005 | 75 | 26 | 0.0 | 1.0 | 0.00 | 0.00 | 0.00 | 61 | 1015.7 |
| 20260830072525 | 74 | 22 | 0.0 | 1.0 | 0.00 | 0.00 | 0.00 | 61 | 1015.7 |
| 20260830072004 | 74 | 17 | 0.0 | 1.0 | 0.00 | 0.00 | 0.00 | 61 | 1015.7 |
| 20260830071525 | 74 | 9 | 0.0 | 3.0 | 0.00 | 0.00 | 0.00 | 62 | 1015.6 |
| 20260830071025 | 74 | 12 | 1.0 | 3.0 | 0.00 | 0.00 | 0.00 | 62 | 1015.5 |
| 20260830070504 | 73 | 22 | 0.0 | 1.0 | 0.00 | 0.00 | 0.00 | 63 | 1015.5 |
| 20260830070005 | 73 | 22 | 0.0 | 1.0 | 0.00 | 0.00 | 0.00 | 63 | 1015.6 |
| 20260830065505 | 73 | 13 | 0.0 | 1.0 | 0.00 | 0.00 | 0.00 | 63 | 1015.6 |
| 20260830065025 | 72 | 18 | 0.0 | 1.0 | 0.00 | 0.00 | 0.00 | 67 | 1015.5 |
| 20260830064505 | 72 | 22 | 0.0 | 1.0 | 0.00 | 0.00 | 0.00 | 67 | 1015.6 |
| 20260830064004 | 72 | 0 | 0.0 | 0.0 | 0.00 | 0.00 | 0.00 | 68 | 1015.7 |
| 20260830063504 | 71 | 22 | 0.0 | 1.0 | 0.00 | 0.00 | 0.00 | 68 | 1015.8 |
| 20260830063004 | 71 | 22 | 0.0 | 1.0 | 0.00 | 0.00 | 0.00 | 69 | 1015.5 |
| 20260830062504 | 70 | 22 | 0.0 | 1.0 | 0.00 | 0.00 | 0.00 | 70 | 1015.6 |
| 20260830062025 | 70 | 22 | 0.0 | 1.0 | 0.00 | 0.00 | 0.00 | 70 | 1015.6 |
| 20260830061525 | 70 | 22 | 0.0 | 1.0 | 0.00 | 0.00 | 0.00 | 70 | 1015.5 |